When you browse on this site, cookies collect data to enhance your experience and personalize the content and advertising you see.
Visit our Privacy Policy to learn more. By continuing to use the site, you agree to this use of cookies and data.
  • In Latvia
  • List of Countries
  • For 7 days
  • Water Temperature
  • Weather Map
  • Weather Widgets
  • user-avatar
    Login

    Hourly Weather Kalgoorlie

    Today, 17 November, Sunday

    Time Temperature Precipitation Wind Pressure Humidity
    00:00 +30°C° 0 mm 6 mps 730 mmHg 15%
    01:00 +29°C° 0 mm 5 mps 730 mmHg 15%
    02:00 +29°C° 0 mm 5 mps 729 mmHg 16%
    03:00 +28°C° 0 mm 5 mps 729 mmHg 16%
    04:00 +28°C° 0 mm 5 mps 730 mmHg 16%
    05:00 +27°C° 0 mm 5 mps 730 mmHg 17%
    06:00 +32°C° 0 mm 7 mps 730 mmHg 14%
    07:00 +37°C° 0 mm 9 mps 731 mmHg 11%
    08:00 +42°C° 0 mm 11 mps 731 mmHg 8%
    09:00 +44°C° 0 mm 11 mps 731 mmHg 7%
    10:00 +47°C° 0 mm 10 mps 731 mmHg 6%
    11:00 +48°C° 0 mm 9 mps 730 mmHg 5%
    12:00 +49°C° 0 mm 9 mps 730 mmHg 5%
    13:00 +49°C° 0 mm 8 mps 729 mmHg 5%
    14:00 +49°C° 0 mm 8 mps 728 mmHg 4%
    15:00 +49°C° 0 mm 7 mps 728 mmHg 4%
    16:00 +47°C° 0 mm 7 mps 728 mmHg 5%
    17:00 +47°C° 0 mm 6 mps 728 mmHg 5%
    18:00 +43°C° 0 mm 5 mps 728 mmHg 6%
    19:00 +38°C° 0 mm 4 mps 729 mmHg 8%
    20:00 +35°C° 0 mm 3 mps 729 mmHg 9%
    21:00 +33°C° 0 mm 5 mps 729 mmHg 17%
    22:00 +30°C° 0 mm 6 mps 729 mmHg 26%
    23:00 +28°C° 0 mm 8 mps 730 mmHg 34%

    Tomorrow, 18 November, Monday

    Time Temperature Precipitation Wind Pressure Humidity
    00:00 +26°C° 0 mm 7 mps 730 mmHg 39%
    01:00 +24°C° 0 mm 7 mps 729 mmHg 43%
    02:00 +22°C° 0 mm 7 mps 729 mmHg 48%
    03:00 +22°C° 0 mm 6 mps 729 mmHg 52%
    04:00 +21°C° 0 mm 5 mps 730 mmHg 56%
    05:00 +20°C° 0 mm 4 mps 730 mmHg 60%
    06:00 +23°C° 0 mm 4 mps 730 mmHg 51%
    07:00 +26°C° 0 mm 5 mps 730 mmHg 42%
    08:00 +29°C° 0 mm 6 mps 730 mmHg 32%
    09:00 +33°C° 0 mm 5 mps 730 mmHg 27%
    10:00 +36°C° 0 mm 4 mps 730 mmHg 21%
    11:00 +38°C° 0 mm 3 mps 729 mmHg 16%
    12:00 +40°C° 0 mm 3 mps 728 mmHg 14%
    13:00 +42°C° 0 mm 3 mps 727 mmHg 12%
    14:00 +44°C° 0 mm 3 mps 726 mmHg 10%
    15:00 +44°C° 0 mm 3 mps 726 mmHg 10%
    16:00 +44°C° 0 mm 3 mps 726 mmHg 9%
    17:00 +44°C° 0 mm 3 mps 726 mmHg 9%
    18:00 +41°C° 0 mm 4 mps 726 mmHg 11%
    19:00 +38°C° 0 mm 4 mps 726 mmHg 13%
    20:00 +36°C° 0 mm 4 mps 726 mmHg 15%
    21:00 +33°C° 0 mm 6 mps 726 mmHg 23%
    22:00 +29°C° 0 mm 7 mps 727 mmHg 31%
    23:00 +26°C° 0 mm 9 mps 727 mmHg 40%

    Day after tomorrow, 19 November, Tuesday

    Time Temperature Precipitation Wind Pressure Humidity
    00:00 +24°C° 0 mm 7 mps 726 mmHg 45%
    01:00 +22°C° 0 mm 6 mps 726 mmHg 50%
    02:00 +20°C° 0 mm 5 mps 725 mmHg 55%
    03:00 +20°C° 0 mm 5 mps 725 mmHg 57%
    04:00 +20°C° 0 mm 5 mps 725 mmHg 59%
    05:00 +19°C° 0 mm 6 mps 724 mmHg 61%
    06:00 +23°C° 0 mm 6 mps 724 mmHg 49%
    07:00 +28°C° 0 mm 7 mps 724 mmHg 37%
    08:00 +33°C° 0 mm 8 mps 724 mmHg 25%
    09:00 +38°C° 0 mm 8 mps 724 mmHg 19%
    10:00 +43°C° 0 mm 9 mps 723 mmHg 13%
    11:00 +48°C° 0 mm 10 mps 723 mmHg 6%
    12:00 +48°C° 0 mm 10 mps 722 mmHg 6%
    13:00 +48°C° 0 mm 11 mps 721 mmHg 6%
    14:00 +48°C° 0 mm 11 mps 720 mmHg 6%
    15:00 +47°C° 0 mm 11 mps 720 mmHg 7%
    16:00 +44°C° 0 mm 11 mps 720 mmHg 9%
    17:00 +43°C° 0 mm 11 mps 720 mmHg 10%
    18:00 +40°C° 0 mm 9 mps 720 mmHg 13%
    19:00 +36°C° 0 mm 6 mps 721 mmHg 15%
    20:00 +34°C° 0 mm 4 mps 722 mmHg 17%
    21:00 +30°C° 0 mm 5 mps 722 mmHg 28%
    22:00 +27°C° 0 mm 7 mps 722 mmHg 39%
    23:00 +23°C° 0 mm 8 mps 722 mmHg 50%

    20 November, Wednesday

    Time Temperature Precipitation Wind Pressure Humidity
    00:00 +22°C° 0 mm 8 mps 721 mmHg 55%
    01:00 +20°C° 0 mm 7 mps 721 mmHg 60%
    02:00 +18°C° 0 mm 7 mps 721 mmHg 65%
    03:00 +17°C° 0 mm 6 mps 721 mmHg 71%
    04:00 +16°C° 0 mm 5 mps 722 mmHg 76%
    05:00 +15°C° 0 mm 4 mps 723 mmHg 81%
    06:00 +17°C° 0 mm 4 mps 724 mmHg 77%
    07:00 +18°C° 0 mm 4 mps 725 mmHg 72%
    08:00 +19°C° 0 mm 5 mps 725 mmHg 67%
    09:00 +21°C° 0 mm 6 mps 726 mmHg 54%
    10:00 +24°C° 0 mm 7 mps 726 mmHg 40%
    11:00 +27°C° 0 mm 8 mps 726 mmHg 27%
    12:00 +27°C° 0 mm 8 mps 726 mmHg 23%
    13:00 +28°C° 0 mm 8 mps 726 mmHg 20%
    14:00 +28°C° 0 mm 8 mps 725 mmHg 17%
    15:00 +28°C° 0 mm 8 mps 726 mmHg 17%
    16:00 +28°C° 0 mm 8 mps 726 mmHg 17%
    17:00 +28°C° 0 mm 8 mps 726 mmHg 17%
    18:00 +26°C° 0 mm 8 mps 727 mmHg 21%
    19:00 +22°C° 0 mm 7 mps 728 mmHg 24%
    20:00 +18°C° 0 mm 7 mps 728 mmHg 27%
    21:00 +17°C° 0 mm 7 mps 729 mmHg 32%
    22:00 +15°C° 0 mm 8 mps 729 mmHg 38%
    23:00 +12°C° 0 mm 8 mps 730 mmHg 43%

    21 November, Thursday

    Time Temperature Precipitation Wind Pressure Humidity
    00:00 +11°C° 0 mm 7 mps 730 mmHg 47%
    01:00 +10°C° 0 mm 6 mps 730 mmHg 50%
    02:00 +9°C° 0 mm 5 mps 730 mmHg 54%
    03:00 +8°C° 0 mm 5 mps 730 mmHg 57%
    04:00 +8°C° 0 mm 4 mps 731 mmHg 61%
    05:00 +7°C° 0 mm 4 mps 731 mmHg 64%
    06:00 +11°C° 0 mm 4 mps 731 mmHg 54%
    07:00 +13°C° 0 mm 5 mps 732 mmHg 44%
    08:00 +15°C° 0 mm 6 mps 732 mmHg 35%
    09:00 +19°C° 0 mm 5 mps 732 mmHg 30%
    10:00 +21°C° 0 mm 4 mps 731 mmHg 25%
    11:00 +23°C° 0 mm 4 mps 731 mmHg 19%
    12:00 +26°C° 0 mm 3 mps 730 mmHg 18%
    13:00 +27°C° 0 mm 2 mps 730 mmHg 16%
    14:00 +29°C° 0 mm 1 mps 729 mmHg 14%
    15:00 +29°C° 0 mm 1 mps 729 mmHg 13%
    16:00 +29°C° 0 mm 1 mps 728 mmHg 13%
    17:00 +30°C° 0 mm 1 mps 728 mmHg 12%
    18:00 +28°C° 0 mm 1 mps 728 mmHg 14%
    19:00 +25°C° 0 mm 2 mps 728 mmHg 17%
    20:00 +22°C° 0 mm 3 mps 728 mmHg 19%
    21:00 +22°C° 0 mm 3 mps 728 mmHg 19%
    22:00 +22°C° 0 mm 4 mps 727 mmHg 19%
    23:00 +22°C° 0 mm 5 mps 727 mmHg 18%

    22 November, Friday

    Time Temperature Precipitation Wind Pressure Humidity
    00:00 +21°C° 0 mm 5 mps 727 mmHg 20%
    01:00 +20°C° 0 mm 4 mps 727 mmHg 22%
    02:00 +19°C° 0 mm 4 mps 727 mmHg 23%
    03:00 +19°C° 0 mm 4 mps 727 mmHg 23%
    04:00 +17°C° 0 mm 5 mps 727 mmHg 23%
    05:00 +17°C° 0 mm 5 mps 726 mmHg 23%
    06:00 +21°C° 0 mm 5 mps 727 mmHg 20%
    07:00 +26°C° 0 mm 6 mps 727 mmHg 17%
    08:00 +29°C° 0 mm 7 mps 728 mmHg 14%
    09:00 +32°C° 0 mm 6 mps 727 mmHg 14%
    10:00 +34°C° 0 mm 6 mps 727 mmHg 13%
    11:00 +36°C° 0 mm 5 mps 727 mmHg 13%
    12:00 +37°C° 0 mm 5 mps 726 mmHg 12%
    13:00 +40°C° 0 mm 5 mps 725 mmHg 12%
    14:00 +41°C° 0 mm 5 mps 724 mmHg 11%
    15:00 +40°C° 0 mm 5 mps 724 mmHg 12%
    16:00 +40°C° 0 mm 5 mps 723 mmHg 12%
    17:00 +39°C° 0 mm 6 mps 723 mmHg 12%
    18:00 +35°C° 0 mm 8 mps 724 mmHg 19%
    19:00 +31°C° 0 mm 11 mps 724 mmHg 25%
    20:00 +26°C° 0 mm 13 mps 725 mmHg 31%
    21:00 +24°C° 0 mm 12 mps 725 mmHg 35%
    22:00 +22°C° 0 mm 10 mps 726 mmHg 38%
    23:00 +19°C° 0 mm 9 mps 726 mmHg 42%
    Show more